EDT,Max TemperatureF,Mean TemperatureF,Min TemperatureF,Max Dew PointF,MeanDew PointF,Min DewpointF,Max Humidity, Mean Humidity, Min Humidity, Max Sea Level PressureIn, Mean Sea Level PressureIn, Min Sea Level PressureIn, Max VisibilityMiles, Mean VisibilityMiles, Min VisibilityMiles, Max Wind SpeedMPH, Mean Wind SpeedMPH, Max Gust SpeedMPH,PrecipitationIn, CloudCover, Events, WindDirDegrees
2013-5-1,77,70,64,70,66,61,100,84,69,30.13,30.09,30.03,10,9,0,22,8,29,0.00,7,,50
2013-5-2,77,73,69,70,69,66,100,87,69,30.10,30.04,30.00,10,10,4,18,12,26,0.00,8,Thunderstorm,48
2013-5-3,73,71,69,68,66,61,94,84,69,30.01,29.95,29.90,10,9,4,22,14,29,0.00,7,,60
2013-5-4,73,68,64,68,65,59,94,85,68,29.90,29.86,29.80,10,8,2,24,16,32,0.00,8,Thunderstorm,80
2013-5-5,78,70,62,70,61,50,100,75,36,29.88,29.82,29.72,10,9,5,17,12,30,0.00,4,Thunderstorm,247
2013-5-6,73,64,55,59,53,46,94,66,41,30.00,29.93,29.86,10,10,10,15,6,20,0.00,3,,255
2013-5-7,78,68,57,59,56,54,94,69,44,30.02,29.96,29.93,10,10,10,15,6,21,0.00,4,,254
2013-5-8,82,68,53,68,56,50,100,68,32,30.11,30.06,30.02,10,9,0,14,3,21,0.00,1,,257
2013-5-9,87,76,64,66,62,59,100,61,38,30.14,30.11,30.08,10,10,10,14,6,16,0.00,2,,214
2013-5-10,87,74,62,72,65,59,100,67,40,30.14,30.09,30.02,10,10,7,14,5,17,0.00,0,,168
2013-5-11,89,78,68,72,68,64,94,72,43,30.04,29.99,29.93,10,10,10,20,7,26,0.00,2,,232
2013-5-12,87,78,68,70,64,50,94,67,29,30.05,29.98,29.94,10,10,10,17,8,22,0.00,4,,260
2013-5-13,80,68,55,59,47,39,83,49,24,30.18,30.11,30.03,10,10,10,12,3,23,0.00,0,,324
2013-5-14,80,64,48,55,48,43,94,58,28,30.27,30.21,30.18,10,10,10,9,2,,0.00,0,,104
2013-5-15,89,72,55,63,57,54,94,61,33,30.25,30.17,30.08,10,10,10,13,4,16,0.00,0,,215
2013-5-16,86,76,66,70,64,57,88,66,45,30.14,30.09,30.05,10,10,10,10,6,,0.00,0,,206
2013-5-17,87,76,64,72,67,63,100,71,46,30.14,30.10,30.06,10,10,3,12,5,,0.00,0,,169
2013-5-18,87,80,73,73,71,66,94,78,55,30.15,30.11,30.06,10,10,5,12,6,17,0.00,2,Thunderstorm,169
2013-5-19,87,79,71,75,73,70,100,81,55,30.12,30.09,30.04,10,10,4,15,4,22,0.00,3,Thunderstorm,152
2013-5-20,82,76,71,75,73,70,100,85,74,30.13,30.08,30.03,10,10,1,10,5,,0.00,2,Thunderstorm,163
2013-5-21,86,78,71,77,72,68,100,82,62,30.09,30.04,29.99,10,8,0,12,4,,0.00,2,Thunderstorm,146
2013-5-22,84,76,68,77,72,68,100,84,62,30.03,29.99,29.94,10,8,0,10,2,,0.00,4,,119
2013-5-23,91,80,69,73,70,64,100,75,43,29.99,29.96,29.91,10,8,0,14,3,20,0.00,2,,271
2013-5-24,89,78,68,70,60,50,94,59,27,30.15,30.02,29.94,10,10,10,14,4,21,0.00,0,,306
2013-5-25,78,68,57,61,55,48,94,63,41,30.31,30.23,30.15,10,10,7,17,4,26,0.00,0,,61
2013-5-26,86,72,57,64,58,54,100,66,35,30.27,30.22,30.18,10,9,2,13,2,16,0.00,0,,143
2013-5-27,86,74,62,68,65,59,100,74,40,30.25,30.21,30.18,10,10,2,12,2,16,0.00,1,,126
2013-5-28,86,77,68,70,67,64,100,69,51,30.23,30.20,30.17,10,10,10,13,6,20,0.00,2,,120
2013-5-29,86,75,64,73,70,64,100,78,58,30.23,30.19,30.14,10,9,0,14,6,18,0.00,4,,101
2013-5-30,87,79,71,77,72,70,100,77,58,30.23,30.19,30.15,10,10,4,15,7,20,0.00,3,,102
2013-5-31,87,80,73,75,73,72,94,75,58,30.21,30.17,30.14,10,10,10,14,7,20,0.00,4,,115